Location: Kelshall
(52.0000°N, 0.0500°W)
Time: 01:09:17
(UTC+00:00)

Lacrosse 4 Rocket - Visible Passes

Search period start: 24 January 2021 00:00
Search period end: 03 February 2021 00:00
Orbit: 537 x 620 km, 68.0° (Epoch: 23 January)

Date Brightness Start Highest point End Pass type
(mag) Time Alt. Az. Time Alt. Az. Time Alt. Az.
24 Jan 3.1 05:25:30 10° S 05:29:20 34° ESE 05:33:18 10° NE visible
24 Jan 1.9 07:03:55 10° WSW 07:07:59 40° NW 07:12:10 10° NNE visible
25 Jan 2.3 05:29:40 10° SSW 05:33:47 49° ESE 05:38:02 10° NE visible
25 Jan 2.3 07:08:49 10° WSW 07:12:40 31° NW 07:16:38 10° NNE visible
26 Jan 4.5 03:59:25 10° ESE 04:00:26 11° ESE 04:01:28 10° E visible
26 Jan 1.6 05:35:18 19° SSW 05:38:16 72° ESE 05:42:39 10° NE visible
27 Jan 4.1 04:04:26 16° ESE 04:04:42 16° ESE 04:07:23 10° ENE visible
27 Jan 1.3 05:40:48 31° SW 05:42:48 80° NW 05:47:14 10° NE visible
28 Jan 3.7 04:09:40 22° E 04:09:40 22° E 04:12:30 10° ENE visible
28 Jan 1.5 05:46:01 38° WSW 05:47:23 57° NW 05:51:46 10° NNE visible
29 Jan 3.5 04:14:42 27° E 04:14:42 27° E 04:17:21 10° NE visible
29 Jan 1.9 05:51:02 36° W 05:52:02 42° NW 05:56:16 10° NNE visible
30 Jan 3.3 04:19:35 30° ENE 04:19:35 30° ENE 04:22:06 10° NE visible
30 Jan 2.3 05:55:54 30° WNW 05:56:43 32° NW 06:00:44 10° NNE visible
31 Jan 3.2 04:24:22 31° NE 04:24:22 31° NE 04:26:44 10° NE visible
31 Jan 2.6 06:00:40 24° NW 06:01:27 25° NW 06:05:10 10° NNE visible
01 Feb 3.1 04:29:03 29° NNE 04:29:03 29° NNE 04:31:19 10° NE visible
01 Feb 2.9 06:05:22 19° NW 06:06:14 21° NNW 06:09:36 10° NNE visible
02 Feb 3.2 04:33:41 27° NNE 04:33:41 27° NNE 04:35:50 10° NNE visible
02 Feb 3.2 06:10:00 16° NW 06:11:03 17° NNW 06:14:01 10° NNE visible
